SAUDISAT 1C 1 27607U 02058C 23340.54596287 .00001940 00000-0 28220-3 0 9996 2 27607 64.5552 96.2676 0048726 185.7249 174.3304 14.78031516127693 SAUDISAT 2 1 28371U 04025F 23340.92120785 .00000512 00000-0 12906-3 0 9997 2 28371 98.4578 306.3364 0024057 252.2107 107.6464 14.55180980 31391 SAUDISAT 3 1 31118U 07012B 23340.45083784 .00000579 00000-0 10484-3 0 9996 2 31118 98.0343 281.7412 0013639 288.9576 71.0152 14.69928001891975 PISAT 1 41784U 16059B 23340.72956637 .00001243 00000-0 23802-3 0 9990 2 41784 97.8531 6.4957 0029580 267.8188 91.9629 14.65215959384327 FLYING LAPTOP 1 42831U 17042G 23341.15439090 .00002188 00000-0 21038-3 0 9992 2 42831 97.3813 168.4954 0013579 12.5005 347.6550 14.93898324348305